Weather History for Jacksonville, FL

Change the Weather History Date:

Wednesday, January 9, 2013

  Actual Average Record
Temperature  
Mean Temperature 68 °F 53 °F  
Max Temperature 76 °F 64 °F 83 °F (1974)
Min Temperature 59 °F 41 °F 19 °F (1970)
Degree Days  
Heating Degree Days 0 13  
Month to date heating degree days 67 116  
Since 1 July heating degree days 543 612  
Cooling Degree Days 3 0  
Month to date cooling degree days 3 0  
Year to date cooling degree days 3 0  
Growing Degree Days 16 (Base 50)    
Moisture  
Dew Point 63 °F    
Average Humidity 90    
Maximum Humidity 100    
Minimum Humidity 79    
Precipitation  
Precipitation 0.00 in 0.11 in 2.10 in (1953)
Month to date precipitation 0.82 0.83  
Year to date precipitation 0.82 0.83  
Snow  
Snow 0.00 in 0.00 in 0.00 in (2002)
Month to date snowfall 0.0 0.0  
Since 1 July snowfall 0.0 T  
Snow Depth 0.00 in    
Sea Level Pressure  
Sea Level Pressure 30.31 in    
Wind  
Wind Speed 6 mph (NE)    
Max Wind Speed 14 mph    
Max Gust Speed 24 mph    
Visibility 3 miles    
Events Fog    
T = Trace of Precipitation, MM = Missing Value Source: NWS Daily Summary

Daily Weather History Graph

Daily Weather History Graph

Search for Another Location

Airport:

Trip Planner

Search our weather history database for the weather conditions in past years. The results will help you decide how hot, cold, wet, or windy it might be!

Date:

Astronomy

Jan. 09, 2013 Rise Set
Actual Time 7:24 AM EST 5:43 PM EST
Civil Twilight 6:58 AM EST 6:09 PM EST
Nautical Twilight 6:28 AM EST 6:39 PM EST
Astronomical Twilight 5:59 AM EST 7:08 PM EST
Moon 5:02 AM EST (1/9) 3:44 PM EST (1/9)
Length of Visible Light 11h 11m
Length of Day
10h 18m
Waning Crescent, 6% of the Moon is Illuminated
Jan 9
Waning Crescent
Jan 11
New
Jan 18
First Quarter
Jan 26
Full
Feb 3
Last Quarter

Hourly Weather History & Observations

Time (EST) Temp. Dew Point Humidity Pressure Visibility Wind Dir Wind Speed Gust Speed Precip Events Conditions
12:44 AM 60.8 °F 59.0 °F 94% 30.26 in 1.5 mi North 3.5 mph - N/A   Overcast
12:56 AM 60.1 °F 59.0 °F 96% 30.27 in 1.5 mi North 3.5 mph - N/A   Overcast
1:45 AM 60.8 °F 59.0 °F 94% 30.27 in 0.5 mi North 4.6 mph - N/A   Overcast
1:56 AM 61.0 °F 60.1 °F 97% 30.27 in 0.5 mi NE 4.6 mph - N/A   Overcast
2:56 AM 61.0 °F 60.1 °F 97% 30.25 in 0.5 mi NE 6.9 mph - N/A   Overcast
3:54 AM 60.8 °F 60.8 °F 100% 30.25 in 0.2 mi NE 4.6 mph - N/A Fog Fog
3:56 AM 61.0 °F 60.1 °F 97% 30.25 in 0.2 mi NE 4.6 mph - N/A Fog Fog
4:56 AM 61.0 °F 60.1 °F 97% 30.26 in 0.2 mi NNE 3.5 mph - N/A Fog Fog
5:56 AM 61.0 °F 60.1 °F 97% 30.26 in 0.2 mi NE 3.5 mph - N/A Fog Fog
6:56 AM 61.0 °F 60.1 °F 97% 30.28 in 0.2 mi NE 5.8 mph - N/A Fog Fog
7:56 AM 60.8 °F 60.8 °F 100% 30.30 in 0.2 mi ENE 4.6 mph - N/A Fog Fog
8:44 AM 62.6 °F 62.6 °F 100% 30.33 in 0.5 mi ENE 4.6 mph - N/A Fog Fog
8:56 AM 62.1 °F 62.1 °F 100% 30.34 in 0.5 mi NE 4.6 mph - N/A Fog Fog
9:39 AM 62.6 °F 62.6 °F 100% 30.35 in 0.2 mi NE 3.5 mph - N/A Fog Fog
9:56 AM 64.0 °F 64.0 °F 100% 30.36 in 0.2 mi ENE 4.6 mph - N/A Fog Fog
10:28 AM 66.2 °F 64.4 °F 94% 30.35 in 0.8 mi ENE 4.6 mph - N/A   Overcast
10:46 AM 66.2 °F 64.4 °F 94% 30.35 in 2.0 mi ENE 4.6 mph - N/A   Overcast
10:56 AM 66.0 °F 64.9 °F 96% 30.35 in 2.5 mi NE 3.5 mph - N/A   Overcast
11:08 AM 68.0 °F 64.4 °F 88% 30.34 in 5.0 mi NE 4.6 mph - N/A   Overcast
11:56 AM 72.0 °F 66.9 °F 84% 30.33 in 10.0 mi NNE 6.9 mph - N/A   Mostly Cloudy
12:42 PM 71.6 °F 66.2 °F 83% 30.31 in 10.0 mi ENE 5.8 mph - N/A   Overcast
12:56 PM 73.0 °F 68.0 °F 84% 30.30 in 10.0 mi NE 8.1 mph - N/A   Overcast
1:22 PM 75.2 °F 68.0 °F 78% 30.29 in 10.0 mi ENE 8.1 mph - N/A   Overcast
1:56 PM 75.0 °F 68.0 °F 79% 30.29 in 10.0 mi NE 6.9 mph - N/A   Overcast
2:56 PM 75.0 °F 68.0 °F 79% 30.29 in 10.0 mi ENE 6.9 mph - N/A   Mostly Cloudy
3:56 PM 73.0 °F 66.9 °F 81% 30.30 in 10.0 mi ENE 8.1 mph - N/A   Mostly Cloudy
4:56 PM 68.0 °F 64.9 °F 90% 30.31 in 10.0 mi ENE 11.5 mph - N/A   Overcast
5:21 PM 66.2 °F 64.4 °F 94% 30.31 in 2.0 mi ENE 12.7 mph - N/A   Overcast
5:30 PM 66.2 °F 64.4 °F 94% 30.32 in 1.0 mi ENE 10.4 mph - N/A   Overcast
5:35 PM 64.4 °F 64.4 °F 100% 30.32 in 0.8 mi ENE 10.4 mph - N/A   Overcast
5:44 PM 64.4 °F 64.4 °F 100% 30.32 in 0.2 mi ENE 9.2 mph - N/A Fog Fog
5:56 PM 64.9 °F 64.0 °F 97% 30.32 in 0.2 mi NE 11.5 mph - N/A Fog Fog
6:33 PM 64.4 °F 62.6 °F 94% 30.33 in 0.8 mi NE 9.2 mph - N/A   Overcast
6:50 PM 64.4 °F 62.6 °F 94% 30.33 in 1.0 mi NE 9.2 mph - N/A   Overcast
6:56 PM 63.0 °F 63.0 °F 100% 30.34 in 1.0 mi NE 6.9 mph - N/A   Overcast
7:19 PM 62.6 °F 62.6 °F 100% 30.34 in 2.0 mi NE 11.5 mph - N/A   Overcast
7:23 PM 62.6 °F 62.6 °F 100% 30.34 in 1.0 mi NE 9.2 mph - N/A   Overcast
7:46 PM 62.6 °F 62.6 °F 100% 30.35 in 0.2 mi ENE 5.8 mph - N/A   Overcast
7:56 PM 63.0 °F 62.1 °F 97% 30.35 in 0.2 mi ENE 9.2 mph - N/A   Overcast
8:56 PM 62.6 °F 62.6 °F 100% 30.35 in 1.0 mi NE 5.8 mph - N/A   Overcast
9:24 PM 62.6 °F 62.6 °F 100% 30.35 in 3.0 mi NE 6.9 mph - N/A   Overcast
9:56 PM 63.0 °F 62.1 °F 97% 30.35 in 3.0 mi ENE 4.6 mph - N/A   Overcast
10:06 PM 62.6 °F 62.6 °F 100% 30.35 in 0.5 mi ENE 8.1 mph - N/A   Overcast
10:39 PM 62.6 °F 62.6 °F 100% 30.35 in 0.2 mi ENE 3.5 mph - N/A Fog Fog
10:56 PM 63.0 °F 63.0 °F 100% 30.36 in 0.2 mi NE 4.6 mph - N/A Fog Fog
11:56 PM 64.0 °F 64.0 °F 100% 30.36 in 0.2 mi NE 4.6 mph - N/A Fog Fog